www.pogodaiklimat.ru

Погода и климат >> Архив погоды >> Доминиканская Республика >> Puerto Plata


ПОГОДА в Puerto Plata

  • Прогноз погоды в Puerto Plata
  • Монитор погоды в Puerto Plata
  • Климат города

АРХИВ ПОГОДЫ в Puerto Plata

Время (UTC), дата Ветер
(напр.,м/с)
 
Видим.   Явления Облачность Т
(С)
Тd
(С)
f
(%)
Тe
(С)
Тes
(С)
Комфортность P
(гПа)
Po
(гПа)
Тmin
(С)
Tmax
(С)
R
(мм)
R24
(мм)
S
(см)
00 19.02 штиль 0 16 км {дождь} 8/5 480 м
[Cu Sc As op]
+21.2 +20.9 98 +27 +27 душно 1019.8 1020.0 +18.2 +26.6 1
03 19.02 штиль 0 16 км в посл. час дождь 8/8 450 м
[Cu Sc]
+21.0 +20.7 98 +26 +26 душно 1021.0 1021.0 0.3
06 19.02 штиль 0 16 км 5/5 450 м
[Cu Sc]
+19.6 +19.0 96 +22 +22 комфорт 1020.9 1021.0 +18.2 +26.6
09 19.02 штиль 0 16 км 3/3 450 м
[Cu med, cong]
+19.2 +18.9 98 +21 +21 комфорт 1019.6 1020.0
12 19.02 штиль 0 16 км 6/6 480 м
[Cu Sc]
+20.4 +20.1 98 +24 +25 комфорт 1021.6 1022.0 +18.1 +26.6
15 19.02 В 8 16 км {дождь} 8/8 500 м
[Cu Sc]
+24.8 +22.0 84 +32 +32 очень
душно
1022.9 1023.0 0.3
18 19.02 В 5 16 км {дождь} 3/3 750 м
[Cu med, cong]
+28.2 +21.3 66 +36 +41 очень
душно
1021.3 1021.0 +18.1 +29.0
21 19.02 В 8 16 км 3/3 660 м
[Cu med, cong]
+26.7 +21.9 75 +34 +35 очень
душно
1020.1 1020.0
00 20.02 В 4 16 км 5/5 540 м
[Cu med, cong]
+23.8 +21.5 87 +30 +30 очень
душно
1021.8 1022.0 +18.1 +29.0
03 20.02 ЮВ 3 16 км в посл. час ливневой дождь 8/8 540 м
[Cu med, cong]
+22.1 +19.8 87 +28 +28 душно 1023.1 1023.0 2
06 20.02 штиль 0 16 км {ливн. осадки} 3/3 540 м
[Cu med, cong]
+22.2 +21.5 96 +29 +29 очень
душно
1022.3 1022.0 +18.1 +29.0
09 20.02 штиль 0 16 км {дождь} 4/3 480 м
[Cu med, cong Ac trans]
+21.4 +21.1 98 +27 +27 душно 1021.4 1021.0 1
12 20.02 штиль 0 16 км {дождь} 3/3 480 м
[Cu med, cong]
+20.4 +20.1 98 +24 +26 комфорт 1022.8 1023.0 +19.5 +29.0
15 20.02 ЮВ 5 16 км в посл. час дождь 9/5 540 м
[Sc Ac lent]
+23.4 +21.8 91 +32 +33 очень
душно
1024.4 1024.0 0.8
18 20.02 В 9 16 км {дождь} 4/3 660 м
[Cu med, cong Ac trans]
+27.6 +20.7 66 +34 +35 очень
душно
1023.1 1023.0 +19.5 +28.2
21 20.02 В 5 16 км 6/4 600 м
[Sc diur, vesp Ac trans]
+27.2 +21.4 71 +35 +35 очень
душно
1021.7 1022.0
03 21.02 С 3 16 км 4/4 480 м
[Cu med, cong]
+22.3 +19.5 84 +28 +28 душно 1022.5 1023.0
06 21.02 штиль 0 16 км {дождь} 6/5 500 м
[Cu med, cong Ac trans]
+21.3 +20.1 93 +26 +26 душно 1023.4 1023.0 +19.5 +28.2 1
09 21.02 ЮВ 4 6000 м слабый дождь 9/5 480 м
[Cu med, cong Ac trans]
+20.3 +19.5 95 +24 +24 комфорт 1022.0 1022.0 4
12 21.02 ЮВ 5 14 км осадки на расстоянии {дождь} 9/8 500 м
[Cu Sc Ac trans]
+21.3 +19.4 89 +26 +26 душно 1022.2 1022.0 +19.5 +28.2 2
15 21.02 В 4 16 км 6/5 600 м
[Cu med, cong Ac trans]
+26.4 +21.4 74 +34 +38 очень
душно
1023.3 1023.0
18 21.02 В 7 16 км 8/6 600 м
[Cu med, cong Ac trans]
+26.9 +21.3 71 +34 +35 очень
душно
1022.2 1022.0 +19.5 +28.0
21 21.02 В 5 16 км {дождь} 9/6 540 м
[Sc As op]
+23.4 +21.7 90 +32 +32 очень
душно
1021.4 1021.0 4
00 22.02 ЮВ 2 8000 м слабый дождь 9/6 480 м
[Sc As op]
+22.4 +21.1 92 +29 +29 очень
душно
1023.0 1023.0 +19.5 +28.7 0.3
03 22.02 штиль 0 16 км {дождь} 4/4 480 м
[Sc]
+22.0 +21.3 96 +29 +29 очень
душно
1024.7 1025.0 0.6
06 22.02 штиль 0 16 км {дождь} 4/4 480 м
[Sc]
+20.6 +20.0 96 +25 +25 комфорт 1024.1 1024.0 +19.5 +28.7
09 22.02 штиль 0 16 км 5/5 480 м
[Sc]
+20.4 +20.1 98 +24 +24 комфорт 1022.9 1023.0
12 22.02 штиль 0 16 км в посл. час дождь 6/5 300 м
[Sc Ac trans]
+20.6 +19.1 91 +24 +25 комфорт 1024.4 1024.0 +19.0 +28.7 5
15 22.02 В 6 16 км 9/6 540 м
[Sc Cs]
+24.6 +21.2 81 +31 +33 очень
душно
1025.3 1025.0
18 22.02 В 6 16 км в посл. час ливневой дождь 9/8 600 м
[Sc As op]
+25.4 +20.3 73 +31 +32 очень
душно
1023.9 1024.0 +19.0 +27.0 0.0
21 22.02 В 5 16 км 9/6 600 м
[Cu Sc As op]
+25.2 +21.0 78 +32 +32 очень
душно
1021.1 1021.0
00 23.02 штиль 0 16 км 5/5 600 м
[Cu Sc]
+22.6 +20.0 85 +29 +29 очень
душно
1021.9 1022.0 +19.0 +27.0
03 23.02 штиль 0 16 км 5/5 540 м
[Cu Sc]
+22.2 +21.6 96 +29 +29 очень
душно
1023.4 1023.0
06 23.02 штиль 0 16 км 6/6 540 м
[Cu Sc]
+20.8 +20.5 98 +25 +25 комфорт 1022.6 1023.0 +19.0 +27.0
09 23.02 штиль 0 16 км {дождь} 8/8 480 м
[Cu Sc]
+20.6 +20.3 98 +25 +25 комфорт 1021.6 1022.0 5
12 23.02 штиль 0 16 км {дождь} 8/8 300 м
[Cu Sc]
+20.2 +19.6 96 +24 +24 комфорт 1022.7 1023.0 +27.0 5
15 23.02 штиль 0 16 км {дождь} 8/8 600 м
[Cu Sc]
+23.4 +20.8 85 +31 +35 очень
душно
1022.9 1023.0 3
18 23.02 В 5 16 км {дождь} 5/5 660 м
[Cu Sc]
+26.8 +20.6 69 +33 +37 очень
душно
1021.1 1021.0 +19.0 +27.5
00 24.02 штиль 0 16 км {ливн. осадки} 4/4 540 м
[Sc]
+23.0 +21.0 89 +31 +31 очень
душно
1020.8 1021.0 +19.0 +28.0 0.2
03 24.02 штиль 0 16 км {дождь} 8/8 480 м
[Sc]
+20.8 +20.3 97 +25 +25 комфорт 1021.3 1021.0 4
06 24.02 штиль 0 16 км {дождь} 8/8 480 м
[Sc]
+19.4 +19.2 99 +22 +22 комфорт 1020.2 1020.0 +19.0 +28.0
09 24.02 штиль 0 16 км {дождь} 5/5 480 м
[Sc]
+19.2 +18.7 97 +21 +21 комфорт 1018.8 1019.0 5
12 24.02 штиль 0 16 км {дождь} 4/4 300 м
[Sc]
+19.9 +19 +20 1019.8 1020.0 +19.5 +28.0 7
15 24.02 В 4 8000 м слабый дождь 8/8 <50 м
[Sc]
+25.5 +22.3 82 +33 +35 очень
душно
1021.0 1021.0 322
18 24.02 В 5 16 км {дождь} 4/4 660 м
[Cu med, cong]
+27.0 +20.4 67 +33 +38 очень
душно
1018.9 1019.0 +19.5 +27.0
21 24.02 В 6 16 км 4/4 660 м
[Cu med, cong]
+26.2 +20.4 70 +32 +33 очень
душно
1017.4 1017.0
00 25.02 штиль 0 16 км 3/3 540 м
[Cu Sc]
+22.3 +20.6 90 +29 +29 очень
душно
1018.5 1019.0 +19.5 +28.2
03 25.02 штиль 0 16 км 4/4 480 м
[Cu Sc]
+20.3 +20.0 98 +24 +24 комфорт 1019.7 1020.0
06 25.02 штиль 0 16 км 4/4 480 м
[Cu Sc]
+20.2 +19.5 96 +24 +24 комфорт 1018.7 1019.0 +21.2 +24.0
09 25.02 штиль 0 16 км 5/5 480 м
[Cu Sc]
+19.7 +18.9 95 +22 +22 комфорт 1018.0 1018.0
12 25.02 штиль 0 16 км 6/6 540 м
[Cu Sc]
+20.1 +19.0 93 +23 +24 комфорт 1019.0 1019.0 +18.5 +28.2
15 25.02 ЮВ 4 16 км 5/5 540 м
[Cb cap]
+25.4 +21.2 78 +32 +37 очень
душно
1020.5 1021.0
18 25.02 В 5 16 км 6/4 540 м
[Cb cap Ci fib]
+26.3 +20.7 71 +33 +37 очень
душно
1019.1 1019.0 +18.5 +28.0

 

Местоположение метеостанции Puerto Plata (Доминиканская Республика): широта 19.75 долгота -70.55 высота над уровнем моря 5 м.

В архиве по умолчанию представлена погода в Puerto Plata за последнюю неделю. Архивные данные за месяц целиком и за предыдущие месяцы, начиная с января 2011 года, Вы можете получить, выбрав интересующий диапазон дат из раскрывающегося списка и нажав кнопку "Ввод!".

Внимание! Время в таблицах - всемирное. Для получения местного времени необходимо прибавить поправку, которая в Puerto Plata равна -4 ч.

Смотрите также архив погоды в соседних городах и на ближайших метеорологических станциях:

Погода в Santiago (Доминиканская Республика) (37 км)
Погода в Sabana De La Mar (Доминиканская Республика) (145 км)
Погода в Santo Domingo (Доминиканская Республика) (163 км)
Погода в Las Americas (Доминиканская Республика) (174 км)
Погода в Barahona (Доминиканская Республика) (182 км)
Погода в La Romana Int Airport (Доминиканская Республика) (224 км)
Погода в Punta Cana (Доминиканская Республика) (265 км)
Погода в Punta de Maisi (Куба) (380 км)
Погода в Punta Lucrecia (Куба) (547 км)
Погода в Cabo Lurecia (Куба) (548 км)

Пояснения к столбцам:

Ветер - указаны скорость ветра в м/с - средняя за 10 мин, порывы в срок и между сроками (в фигурных скобках) и направление, откуда дует ветер: С - северный, СВ - северо-восточный, В - восточный, ЮВ - юго-восточный, Ю - южный, ЮЗ - юго-западный, З - западный, СЗ - северо-западный.
Видимость - горизонтальная дальность видимости в метрах или километрах. При видимости от 1 до 10 км при отсутствии осадков обычно наблюдается дымка, при ухудшении видимости до 1 км и менее - туман. В сухую погоду видимость может ухудшаться дымом, пылью или мглою.
Явления - указаны атмосферные явления, наблюдавшиеся в срок или в последний час перед сроком; фигурными скобками обозначены явления, наблюдавшиеся между сроками (за 1-3 часа до срока); квадратными скобками обозначены град или гололедные отложения с указанием их диаметра в мм.
Облачность - указаны через наклонную черту общая и нижняя облачность в баллах и высота нижней границы облаков в метрах; квадратными скобками обозначены формы облаков: Ci - перистые, Cs - перисто-слоистые, Cc - перисто-кучевые, Ac - высококучевые, As - высокослоистые, Sc - слоисто-кучевые, Ns - слоисто-дождевые, Cu - кучевые, Cb - кучево-дождевые. Подробнее классификацию облаков см. в Атласе облаков (PDF).
T - Температура воздуха - температура, измеренная на высоте 2 м над землей.
Td - Температура точки росы - температура, при понижении до которой содержащийся в воздухе водяной пар достигнет насыщения.
f - Относительная влажность воздуха - влажноcть воздуха, измеренная на высоте 2 м над землей.
Te - Эффективная температура - температура, которую ощущает одетый по сезону человек в тени. Характеристика душности погоды. При расчете учитывается влияние влажности воздуха и скорости ветра на теплоощущения человека.
Tes - Эффективная температура на солнце - температура, которую ощущает человек, с поправкой на солнечный нагрев. Характеристика знойности погоды. Зависит от высоты солнца над горизонтом, облачности и скорости ветра. Ночью, в пасмурную погоду, а также при ветре 12 м/с и более поправка равна нулю.
P - Атмосферное давление - приведенное к уровню моря атмосферное давление.
Po - Атмосферное давление - измеренное на уровне метеостанции атмосферное давление.
Tmin - Минимальная температура - минимум температуры воздуха на высоте 2 м над землей.
Tmax - Максимальная температура - максимум температуры воздуха на высоте 2 м над землей.
R - Количество осадков - Количество выпавших осадков за период времени, мм. При наведении курсора мыши на число - период времени, за который выпало указанное количество осадков.
R24 - Количество осадков - Количество выпавших осадков за 24 часа, мм.
S - Снежный покров - Высота снежного покрова, см. При наведении курсора мыши на число - состояние снежного покрова и степень покрытия местности в баллах.